AirNav   ATP
 
 428 users online  

KTPF Peter O Knight Airport
Tampa, Florida, USA

GOING TO TAMPA?


FAA INFORMATION EFFECTIVE 26 APRIL 2018

Location

FAA Identifier: TPF
Lat/Long: 27-54-55.6000N / 082-26-57.8000W
27-54.926667N / 082-26.963333W
27.9154444 / -82.4493889
(estimated)
Elevation: 7.4 ft. / 2.3 m (surveyed)
Variation: 05W (2010)
From city: 3 miles S of TAMPA, FL
Time zone: UTC -4 (UTC -5 during Standard Time)
Zip code: 33606

Airport Operations

Airport use: Open to the public
Activation date: 04/1940
Control tower: no
ARTCC: MIAMI CENTER
FSS: SAINT PETERSBURG FLIGHT SERVICE STATION
NOTAMs facility: TPF (NOTAM-D service available)
Attendance: 0700-1900
Pattern altitude: 907.4 ft. MSL
Wind indicator: lighted
Segmented circle: yes
Lights: ACTVT MIRL RY 04/22 AND 18/36, VASI RY 04, REIL RY 22 AND PAPI RY 36 - CTAF.
Beacon: white-green (lighted land airport)
Operates sunset to sunrise.

Airport Communications

CTAF/UNICOM: 122.725
WX AWOS-3: 118.925 (813-251-6824)
TAMPA APPROACH: 119.9
TAMPA DEPARTURE: 119.9
CLEARANCE DELIVERY: 119.8(IFR)
WX ASOS at TPA (6 nm NW): PHONE 813-873-7228
WX AWOS-3 at VDF (8 nm NE): 121.125 (813-630-0924)
WX ASOS at PIE (13 nm W): PHONE 727-531-3456
WX ASOS at SPG (13 nm SW): 118.875 (727-821-4334)
WX AWOS-3 at PCM (16 nm E): 120.025 (813-764-8259)
WX AWOS-3P at CLW (17 nm W): 119.225 (727-449-2184)

Nearby radio navigation aids

VOR radial/distance  VOR name  Freq  Var
PIEr093/12.5ST PETERSBURG VORTAC116.4005W
LALr259/23.5LAKELAND VORTAC116.0001E
SRQr016/31.1SARASOTA VOR/DME117.0005W

 
NDB name  Hdg/Dist  Freq  Var  ID
COSME164/11.036805WTP - .--.
CAPOK115/14.336005WPI .--. ..

Airport Services

Fuel available: 100LL JET-A
Parking: hangars and tiedowns
Airframe service: MAJOR
Powerplant service: MAJOR
Bottled oxygen: LOW
Bulk oxygen: HIGH/LOW

Runway Information

Runway 4/22

Dimensions: 3583 x 100 ft. / 1092 x 30 m
Surface: asphalt, in good condition
Weight bearing capacity: 
Single wheel: 20.0
Runway edge lights: medium intensity
RUNWAY 4  RUNWAY 22
Latitude: 27-54.653480N27-55.126017N
Longitude: 082-27.244095W082-26.843927W
Elevation: 6.5 ft.6.8 ft.
Traffic pattern: rightleft
Runway heading: 042 magnetic, 037 true222 magnetic, 217 true
Displaced threshold: 175 ft.177 ft.
Declared distances: TORA:3405 TODA:3405 ASDA:3405 LDA:3230TORA:3405 TODA:3405 ASDA:3405 LDA:3405
Markings: nonprecision, in good conditionnonprecision, in good condition
Visual slope indicator: 4-box VASI on left (3.00 degrees glide path)
Runway end identifier lights: yes
RY 22 REIL DSPLCD 213 FT FROM THLD.
Touchdown point: yes, no lightsyes, no lights
Obstructions: 15 ft. road, 609 ft. from runway, 27:1 slope to clear
RY 04 APCH RATIO 50:1 TO THE DSPLCD THLD.
50 ft. tank, 1200 ft. from runway, 20:1 slope to clear
RY 22 APCH RATIO 27:1 TO THE DSPLCD THLD.

Runway 18/36

Dimensions: 2687 x 75 ft. / 819 x 23 m
Surface: asphalt, in good condition
Weight bearing capacity: 
PCN 8 /F/B/X/T
Single wheel: 27.0
Double wheel: 32.0
Runway edge lights: medium intensity
Gradient: ESTD
RUNWAY 18  RUNWAY 36
Latitude: 27-55.197585N27-54.757473N
Longitude: 082-26.887140W082-26.826555W
Elevation: 5.9 ft.6.3 ft.
Gradient: 0.1%0.1%
Traffic pattern: leftright
Runway heading: 178 magnetic, 173 true358 magnetic, 353 true
Displaced threshold: 203 ft.201 ft.
Declared distances: TORA:2486 TODA:2486 ASDA:2486 LDA:2283TORA:2484 TODA:2484 ASDA:2484 LDA:2283
Markings: nonprecision, in good conditionnonprecision, in good condition
Visual slope indicator: 2-light PAPI on right (3.00 degrees glide path)
Touchdown point: yes, lightedyes, no lights
Obstructions: 6 ft. fence, 200 ft. from runway, 93 ft. right of centerline
6 FT FENCE 125 FT R OF CNTRLN 195 FT FROM END OF RY.
15 ft. road, 620 ft. from runway, 28:1 slope to clear
RY 36 APCH RATIO 50:1 TO DSPLCD THLD.

Airport Ownership and Management from official FAA records

Ownership: Publicly-owned
Owner: HILLSBOROUGH COUNTY AVIATION AUTH
PO BOX 22287
TAMPA, FL 33622
Phone (813) 870-8711
CONTACT PERSON: JOHN TILIACOS
Manager: BRETT FAY
PO BOX 22287
TAMPA, FL 33606
Phone (813) 870-8735
AIRPORT PHYSICAL ADDRESS: 825 SEVERN BOULEVARD, TAMPA FL 33622 813-251-1752

Airport Operational Statistics

Aircraft based on the field: 110
Single engine airplanes: 85
Multi engine airplanes: 14
Jet airplanes: 2
Helicopters: 9
    
Aircraft operations: avg 147/day *
54% transient general aviation
39% local general aviation
7% air taxi
* for 12-month period ending 15 December 2016

Additional Remarks

SHIP CHANNEL IN APCH TO RYS 18 & 22.
OCEAN GOING VESSELS IN SHIP CHANNEL EAST.
GULLS ON AND INVOF ARPT.
TWY E CLSD TO ACFT WITH WING SPANS IN EXCESS OF 40 FT.
BE ALERT: MACDILL AFB LCTD 4 MILES SW.
BE AWARE OF HOSPITAL HELIPAD TFC 1 NM NORTH USING UNICOM FREQ OF 122.825.

Instrument Procedures

NOTE: All procedures below are presented as PDF files. If you need a reader for these files, you should download the free Adobe Reader.

NOT FOR NAVIGATION. Please procure official charts for flight.
FAA instrument procedures published for use from 26 April 2018 at 901Z to 24 May 2018 at 0900Z.

 
STARs - Standard Terminal Arrivals
BRDGE EIGHT   download (235KB)
DARBS THREE   download (165KB)
LZARD SIX   download (236KB)
 
IAPs - Instrument Approach Procedures
RNAV (GPS) RWY 22   download (205KB)
RNAV (GPS) RWY 36   download (216KB)
NOTE: Special Alternate Minimums apply   download (22KB)
NOTE: Special Take-Off Minimums/Departure Procedures apply   download (162KB)

Other nearby airports with instrument procedures:

KMCF - MacDill Air Force Base (5 nm SW)
KTPA - Tampa International Airport (6 nm NW)
KVDF - Tampa Executive Airport (8 nm NE)
KPIE - St Pete-Clearwater International Airport (13 nm W)
KSPG - Albert Whitted Airport (13 nm SW)
KPCM - Plant City Airport (16 nm E)
KCLW - Clearwater Air Park (17 nm W)
 
Loc | Ops | Rwys | IFR | FBO | Links
Com | Nav | Svcs | Stats | Notes


 
Area around KTPF (Peter O Knight Airport)
 
Road maps at: MapQuest Bing Google
 
Aerial photo
WARNING: Photo may not be current or correct
Aerial photo of KTPF (Peter O Knight Airport)
Photo courtesy of PhotosFromTheAir.com
Photo taken 27-Feb-2012
looking north.

Do you have a better or more recent aerial photo of Peter O Knight Airport that you would like to share? If so, please send us your photo.

 
Sectional chart

 
Airport distance calculator
Flying to Peter O Knight Airport? Find the distance to fly.

From to KTPF

Sunrise and sunset
Times for 21-May-2018
 Local
(UTC-4)
 Zulu
(UTC)
Morning civil twilight06:1210:12
Sunrise06:3810:38
Sunset20:1500:15
Evening civil twilight20:4000:40

Current date and time
Zulu (UTC)  21-May-2018 05:44:16
Local (UTC-4)  21-May-2018 01:44:16
 
METAR
KTPF 210535Z AUTO 07004KT 10SM OVC070 A3005 RMK AO2 P0001
KMCF 
5nm SW 
210512Z AUTO 09006KT 10SM SCT023 SCT040 BKN050 OVC060 22/20 A3005 RMK AO2 DZE0457 SLP179 FZRANO $
KTPA 
5nm NW 
210453Z VRB04KT 10SM FEW048 OVC060 23/20 A3007 RMK AO2 SLP182 T02330200 402440217
KVDF 
8nm NE 
210535Z AUTO 00000KT 10SM OVC070 22/21 A3006 RMK AO2
KPIE 
12nm W 
210453Z AUTO 12005KT 10SM FEW050 OVC075 24/23 A3006 RMK AO2 SLP178 T02390228 402610233 $
KSPG 
13nm SW 
210523Z AUTO 13010KT 10SM SCT023 BKN030 OVC055 23/21 A3003 RMK AO2 T02280211
KPCM 
16nm E 
210535Z AUTO 07003KT 10SM SCT023 BKN075 OVC085 23/21 A3008 RMK AO2
KCLW 
17nm W 
210535Z AUTO 11004KT 10SM SCT023 SCT032 BKN048 22/20 A3004 RMK AO2
TAF
KMCF 
5nm SW 
210350Z 2103/2206 13012KT 9000 -SHRA SCT007 BKN025 OVC050 QNH3000INS BECMG 2105/2106 12009KT 9999 NSW BKN010 BKN035 QNH3000INS BECMG 2117/2118 11009KT 8000 -SHRA SCT010 BKN020 QNH3000INS TEMPO 2118/2122 11010G15KT 4800 -TSRA BKN007CB BECMG 2200/2201 12009KT 9999 NSW BKN010 OVC050 QNH3001INS TX28/2119Z TN21/2110Z
KTPA 
5nm NW 
210302Z 2103/2206 11005KT P6SM VCSH FEW015 OVC060 FM211400 12007KT P6SM VCSH SCT015 BKN025 OVC050 FM211800 15009KT 6SM SHRA VCTS SCT015CB BKN025 OVC050 FM220200 12006KT P6SM VCSH FEW007 BKN015 OVC025
KPIE 
12nm W 
202230Z 2023/2118 14012KT P6SM -SHRA BKN008 OVC015 TEMPO 2023/2101 SCT008 BKN025 OVC050 FM210100 10008KT P6SM SCT025 OVC050 FM211500 11009KT P6SM VCSH SCT025 OVC050
NOTAMs
Click for the latest NOTAMs
NOTAMs are issued by the DoD/FAA and will open in a separate window not controlled by AirNav.

 

 
 

FBO, Fuel Providers, and Aircraft Ground Support

  
 Business Name 
 
 Contact 
 
 Services / Description 
 
Fuel Prices
 
Comments
  
 Atlas Aviation
813-251-1752
[web site]
[email]
Aviation fuel, Oxygen service, Aircraft parking (ramp or tiedown), Hangars, Passenger terminal and lounge, Flight training, Aircraft rental, ...
 
Courtesy car   Hertz  
 
More info about Atlas Aviation
Shell
100LL Jet A
FS $5.89 $5.69 
 Updated 07-May-2018
 
   6 read write
FS=Full service
Update Fuel Prices
 

Would you like to see your business listed on this page?

 If your business provides an interesting product or service to pilots, flight crews, aircraft, or users of the Peter O Knight Airport, you should consider listing it here.  To start the listing process, click on the button below
 
Add a business
 

Other Pages about Peter O Knight Airport

Update a link
 
Copyright © AirNav, LLC. All rights reserved. Privacy Policy  Contact